Location: ?
(35.4554°N, 139.3092°E)
Time: 01:13:30
(UTC+00:00)

USA 234 - Pass Details

Date: 21 April 2021
Orbit: 1102 x 1105 km, 123.0° (Epoch: 18 April)

Event Time Altitude Azimuth Distance (km) Brightness Sun altitude
Rises 16:58:55 0° 41° (NE) 3,923 7.3 -32.4°
Reaches altitude 10° 17:01:25 10° 39° (NE) 2,963 6.4 -32.1°
Maximum altitude 17:07:54 71° 317° (NW) 1,161 3.2 -31.2°
Enters shadow 17:08:02 70° 309° (NW) 1,163 3.2 -31.1°
